Regional Weather Roundup
Issued by NWS

Home | Current Version | Previous Version | Text Only | Print | Product List | Glossary On
Versions: 1 2 3 4 5 6 7 8 9 10 11 12 13 14 15 16 17 18 19 20 21 22 23 24 25 26 27 28 29 30 31 32 33 34 35 36 37 38 39 40 41 42 43 44 45 46 47 48 49 50
000
ASUS43 KOAX 290110
RWRNE

WEATHER ROUNDUP FOR NEBRASKA
NATIONAL WEATHER SERVICE OMAHA NE
800 PM CDT THU AUG 28 2014

NOTES: SATELLITE DATA IS BEING USED TO AUGMENT CLOUD COVER ABOVE
       12000 FEET.
       "FAIR" INDICATES FEW OR NO CLOUDS BELOW 12,000 FEET WITH NO
       SIGNIFICANT WEATHER AND/OR OBSTRUCTIONS TO VISIBILITY.

  * THESE STATIONS DO NOT REPORT WEATHER SUCH AS RAIN...SNOW OR FOG.

NEZ001>004-019>022-054>056-290200-
NEBRASKA PANHANDLE

CITY           SKY/WX    TMP DP  RH WIND       PRES   REMARKS
SCOTTSBLUFF    MOCLDY    66  54  65 W7        30.02F
ALLIANCE       CLOUDY    66  53  63 NW10      29.96F
CHADRON        CLOUDY    66  57  72 SW5       29.95F
KIMBALL        CLOUDY    63  54  72 NW9       30.07S
SIDNEY         CLOUDY    65  53  65 NW12      30.04S
$$

NEZ057>060-069>072-079>082-290200-
SOUTHWEST NEBRASKA

CITY           SKY/WX    TMP DP  RH WIND       PRES   REMARKS
NORTH PLATTE   PTCLDY    71  59  65 NW14      29.88R
IMPERIAL       PTCLDY    69  56  62 NW14      29.95S
LEXINGTON      PTCLDY    77  69  75 SE7       29.85S
MCCOOK         PTCLDY    72  63  73 W8        29.88R
OGALLALA       PTCLDY    63  55  75 NW3       29.95F
$$

NEZ005>010-023>029-035>040-094-290200-
NORTH CENTRAL NEBRASKA

CITY           SKY/WX    TMP DP  RH WIND       PRES   REMARKS
VALENTINE      TSTM      65  59  81 S16G22    29.95R
AINSWORTH      TSTM      63  58  83 N23       29.88F
BROKEN BOW     CLOUDY    74  63  68 N16       29.85R
O`NEILL        CLOUDY    75  69  80 NW3       29.83R
ORD            CLEAR     76  67  73 S6        29.81S
THEDFORD       CLOUDY    66  61  84 NW10      29.90F
$$

NEZ041-046>049-061>064-073>077-083>087-290200-
SOUTH CENTRAL NEBRASKA

CITY           SKY/WX    TMP DP  RH WIND       PRES   REMARKS
GRAND ISLAND   CLOUDY    78  70  76 S7        29.83S
AURORA         CLOUDY    76  73  90 S3        29.82F
HASTINGS       MOCLDY    79  68  69 S6        29.83S
HEBRON         MOCLDY    75  65  69 S6        29.83F
HOLDREGE       PTCLDY    76  65  69 S3        29.85S
KEARNEY *      PTCLDY    75  66  73 S8        29.84S
YORK           MOCLDY    75 N/A N/A S6        29.83S
$$

NEZ011>018-030>034-042>045-290200-
NORTHEAST NEBRASKA

CITY           SKY/WX    TMP DP  RH WIND       PRES   REMARKS
NORFOLK        MOCLDY    76  70  82 SE5       29.81F
ALBION         MOCLDY    76  69  80 SE7       29.82S
BLAIR          MOCLDY    77  71  81 S6        29.83F
FREMONT        MOCLDY    77  70  79 SE6       29.83F
TEKAMAH        MOCLDY    76  72  87 S5        29.82F
WAYNE          MOCLDY    76  73  90 SE7       29.82S
$$

NEZ050>053-065>068-078-088>093-290200-
SOUTHEAST NEBRASKA

CITY           SKY/WX    TMP DP  RH WIND       PRES   REMARKS
LINCOLN        CLOUDY    77  68  73 SE10      29.84S
OMAHA EPPLEY   CLOUDY    78  71  79 S5        29.81F
BEATRICE       CLOUDY    76  70  82 E3        29.84F
FALLS CITY     CLOUDY    79  74  84 CALM      29.82F
NEBRASKA CITY  CLOUDY    75  71  86 SW6       29.83F
PLATTSMOUTH    CLOUDY    76  73  87 CALM      29.84F
$$

NEZ044-045-051>053-067-290200-
OMAHA AREA

CITY           SKY/WX    TMP DP  RH WIND       PRES   REMARKS
OMAHA EPPLEY   CLOUDY    78  71  79 S5        29.81F
BLAIR          MOCLDY    77  71  81 S6        29.83F
FREMONT        MOCLDY    77  70  79 SE6       29.83F
MILLARD        MOCLDY    77  73  86 CALM      29.82F
OFFUTT AFB     CLOUDY    77  77  99 CALM      29.82F
PLATTSMOUTH    CLOUDY    76  73  87 CALM      29.84F
WAHOO          FAIR      75  69  82 SE6       29.83F
$$



USA.gov is the U.S. government's official web portal to all federal, state and local government web resources and services.